185P/Petriew (2023)

Japanese version
Home page
Updated on September 2, 2023

---------------------------------------------------------------------

* Profile

* Pictures

* Orbital Elements

Epoch 2023 Feb. 25.0 TT = JDT 2460000.5
T 2023 July 12.90371 TT                                 Rudenko
q   0.9302929            (2000.0)            P               Q
n   0.18076420     Peri.  181.89084     +0.80950490     -0.57118642
a   3.0978551      Node   214.11529     +0.54179430     +0.81588005
e   0.6996977      Incl.   14.01461     +0.22618744     +0.08992116
P   5.45
>From 763 observations 2007 Jan. 11-2023 May 3, mean residual 0".8.
     Nongravitational parameters A1 = -0.01, A2 = +0.0147.

* Finding Charts

* Magnitudes Graph

        m1 = 12.7 + 5 log d + 30.0 log r(t - 10)  [  ,10]  (             - 2023 July 22)
        m1 = 12.5 + 5 log d + 23.0 log r(t - 10)  [10,  ]  (2023 July 22 -             )

---------------------------------------------------------------------

The orbital elements are published on M.P.E.C. 2023-J29.
The charts are made with StellaNavigator Ver.10 (AstroArts).
The magnitudes graphs are made with Comet for Windows.

---------------------------------------------------------------------

Copyright(C) Seiichi Yoshida (comet@aerith.net). All rights reserved.